Port Hope, MI

12:37 AM EDT on May 27, 2018 (GMT -0400)
Port Hope

Weather History for KP58 - February, 2014

Change the Weather History Date:

Wednesday, February 5, 2014

  Actual Average Record
Temperature  
Mean Temperature 20 °F -  
Max Temperature 24 °F 29 °F 43 °F (2005)
Min Temperature 14 °F 18 °F -6 °F (2009)
Degree Days  
Heating Degree Days 46    
Moisture  
Dew Point 13 °F    
Average Humidity 76    
Maximum Humidity 89    
Minimum Humidity 65    
Precipitation  
Precipitation 0.04 in - - ()
Sea Level Pressure  
Sea Level Pressure 30.19 in    
Wind  
Wind Speed 14 mph (North)    
Max Wind Speed 25 mph    
Max Gust Speed 32 mph    
Averages and records for this station are not official NWS values.
T = Trace of Precipitation, MM = Missing Value Source: NWS Daily Summary

Daily Weather History Graph

Daily Weather History Graph

Search for Another Location

Airport or City:

Astronomy

Feb. 05, 2014 Rise Set
Actual Time 7:43 AM EST 5:47 PM EST
Civil Twilight 7:13 AM EST 6:17 PM EST
Nautical Twilight 6:39 AM EST 6:51 PM EST
Astronomical Twilight 6:05 AM EST 7:25 PM EST
Moon 10:43 AM EST (2/5) No Moon Set
Length of Visible Light 11h 03m
Length of Day
10h 03m
Waxing Crescent, 39% of the Moon is Illuminated
Feb 5
Waxing Crescent
Feb 6
First Quarter
Feb 14
Full
Feb 22
Last Quarter
Mar 1
New

Hourly Weather History & Observations

Time (EST) Temp. Windchill Dew Point Humidity Pressure Visibility Wind Dir Wind Speed Gust Speed Precip Events Conditions
12:51 AM 21.9 °F 11.0 °F 16.0 °F 78% 30.23 in - NE 10.4 mph - N/A   Unknown
1:51 AM 23.0 °F 12.4 °F 16.0 °F 74% 30.21 in - NE 10.4 mph - N/A   Unknown
2:51 AM 23.0 °F 11.7 °F 17.1 °F 78% 30.20 in - NE 11.5 mph - N/A   Unknown
3:51 AM 23.0 °F 11.1 °F 17.1 °F 78% 30.18 in - NNE 12.7 mph - N/A   Unknown
4:51 AM 24.1 °F 9.8 °F 18.0 °F 77% 30.14 in - NE 19.6 mph - N/A   Unknown
5:51 AM 23.0 °F 7.2 °F 18.0 °F 81% 30.09 in - NE 23.0 mph - N/A   Unknown
6:51 AM 23.0 °F 8.0 °F 19.9 °F 88% 30.06 in - ENE 20.7 mph - 0.01 in   Unknown
7:51 AM 24.1 °F 9.4 °F 21.0 °F 88% 30.06 in - NE 20.7 mph - 0.01 in   Unknown
8:51 AM 23.0 °F 6.9 °F 19.9 °F 88% 30.08 in - NNE 24.2 mph - 0.01 in   Unknown
9:51 AM 21.9 °F 6.2 °F 19.0 °F 89% 30.07 in - NNE 21.9 mph - N/A   Unknown
10:51 AM 21.0 °F 3.9 °F 17.1 °F 85% 30.07 in - North 25.3 mph 31.1 mph 0.01 in   Unknown
11:51 AM 19.9 °F 2.5 °F 15.1 °F 81% 30.09 in - North 25.3 mph 32.2 mph N/A   Unknown
12:51 PM 19.9 °F 4.3 °F 12.9 °F 74% 30.11 in - North 19.6 mph 27.6 mph N/A   Unknown
1:51 PM 19.0 °F 2.7 °F 12.0 °F 74% 30.12 in - North 20.7 mph - N/A   Unknown
2:51 PM 19.0 °F 6.8 °F 10.9 °F 71% 30.15 in - North 11.5 mph 27.6 mph N/A   Unknown
3:51 PM 19.0 °F 8.2 °F 10.9 °F 71% 30.18 in - North 9.2 mph 20.7 mph N/A   Unknown
4:51 PM 18.0 °F 8.7 °F 10.0 °F 71% 30.21 in - North 6.9 mph - N/A   Unknown
5:51 PM 17.1 °F 6.6 °F 9.0 °F 71% 30.25 in - NNW 8.1 mph - N/A   Unknown
6:51 PM 16.0 °F 6.3 °F 6.1 °F 65% 30.29 in - NNW 6.9 mph - N/A   Unknown
7:51 PM 15.1 °F 5.2 °F 6.1 °F 68% 30.30 in - NW 6.9 mph - N/A   Unknown
8:51 PM 16.0 °F 6.3 °F 6.1 °F 65% 30.31 in - NNW 6.9 mph - N/A   Unknown
9:51 PM 16.0 °F 4.4 °F 7.0 °F 68% 30.34 in - NW 9.2 mph - N/A   Unknown
10:51 PM 15.1 °F 7.7 °F 7.0 °F 70% 30.35 in - NNW 4.6 mph - N/A   Unknown
11:51 PM 14.0 °F 6.5 °F 6.1 °F 71% 30.36 in - NNW 4.6 mph - N/A   Unknown